| time (UTC) | temp F | wind direction | speed knots | gust knots | rain 1hr in | rain 24hr in | rain mn in | humidity % | barometer mb |
| 20260509213058 | 50 | 360 | 2.6 | 5.2 | 0.00 | 0.00 | 0.00 | 86 | 1029.1 |
| 20260509212543 | 50 | 360 | 2.6 | 5.2 | 0.00 | 0.00 | 0.00 | 85 | 1029.0 |
| 20260509212040 | 50 | 360 | 2.6 | 5.2 | 0.00 | 0.00 | 0.00 | 86 | 1029.0 |
| 20260509211547 | 50 | 360 | 2.6 | 5.2 | 0.00 | 0.00 | 0.00 | 85 | 1028.9 |
| 20260509211043 | 50 | 360 | 2.6 | 7.0 | 0.00 | 0.00 | 0.00 | 85 | 1028.9 |
| 20260509210544 | 51 | 360 | 2.6 | 7.0 | 0.00 | 0.00 | 0.00 | 85 | 1028.8 |
| 20260509210101 | 51 | 360 | 3.5 | 7.0 | 0.00 | 0.00 | 0.00 | 85 | 1028.8 |
| 20260509205545 | 51 | 360 | 2.6 | 5.2 | 0.00 | 0.00 | 0.00 | 85 | 1028.7 |
| 20260509205043 | 51 | 360 | 3.5 | 7.0 | 0.00 | 0.00 | 0.00 | 85 | 1028.6 |
| 20260509204552 | 51 | 360 | 3.5 | 7.0 | 0.00 | 0.00 | 0.00 | 84 | 1028.6 |
| 20260509204040 | 51 | 360 | 2.6 | 7.0 | 0.00 | 0.00 | 0.00 | 84 | 1028.5 |
| 20260509203542 | 51 | 360 | 3.5 | 5.2 | 0.00 | 0.00 | 0.00 | 84 | 1028.6 |
| 20260509203049 | 51 | 360 | 2.6 | 4.3 | 0.00 | 0.00 | 0.00 | 84 | 1028.6 |
| 20260509202543 | 51 | 360 | 2.6 | 5.2 | 0.00 | 0.00 | 0.00 | 84 | 1028.5 |
| 20260509202043 | 51 | 360 | 2.6 | 5.2 | 0.00 | 0.00 | 0.00 | 84 | 1028.6 |
| 20260509201558 | 51 | 360 | 2.6 | 5.2 | 0.00 | 0.00 | 0.00 | 84 | 1028.5 |
| 20260509201046 | 51 | 360 | 2.6 | 5.2 | 0.00 | 0.00 | 0.00 | 83 | 1028.5 |
| 20260509200544 | 51 | 360 | 2.6 | 4.3 | 0.00 | 0.00 | 0.00 | 83 | 1028.4 |
| 20260509200055 | 51 | 360 | 2.6 | 5.2 | 0.00 | 0.00 | 0.00 | 83 | 1028.4 |
| 20260509195543 | 51 | 360 | 2.6 | 5.2 | 0.00 | 0.00 | 0.00 | 83 | 1028.4 |
| 20260509195040 | 51 | 360 | 2.6 | 4.3 | 0.00 | 0.00 | 0.00 | 83 | 1028.4 |
| 20260509194546 | 51 | 360 | 2.6 | 4.3 | 0.00 | 0.00 | 0.00 | 83 | 1028.4 |
| 20260509194039 | 51 | 360 | 2.6 | 4.3 | 0.00 | 0.00 | 0.00 | 83 | 1028.3 |
| 20260509193539 | 51 | 360 | 2.6 | 5.2 | 0.00 | 0.00 | 0.00 | 82 | 1028.3 |
| 20260509193053 | 52 | 360 | 1.7 | 5.2 | 0.00 | 0.00 | 0.00 | 82 | 1028.2 |
| 20260509192543 | 52 | 360 | 2.6 | 5.2 | 0.00 | 0.00 | 0.00 | 82 | 1028.1 |
| 20260509192043 | 52 | 360 | 2.6 | 5.2 | 0.00 | 0.00 | 0.00 | 82 | 1028.0 |
| 20260509191550 | 52 | 360 | 2.6 | 5.2 | 0.00 | 0.00 | 0.00 | 82 | 1028.1 |
| 20260509191042 | 52 | 360 | 2.6 | 5.2 | 0.00 | 0.00 | 0.00 | 82 | 1028.0 |
| 20260509190543 | 52 | 360 | 2.6 | 5.2 | 0.00 | 0.00 | 0.00 | 81 | 1028.0 |
| 20260509190048 | 52 | 360 | 2.6 | 5.2 | 0.00 | 0.00 | 0.00 | 81 | 1027.9 |
| 20260509185543 | 52 | 360 | 2.6 | 5.2 | 0.00 | 0.00 | 0.00 | 81 | 1027.9 |
| 20260509185043 | 53 | 360 | 2.6 | 7.0 | 0.00 | 0.00 | 0.00 | 81 | 1027.9 |
| 20260509184552 | 53 | 360 | 2.6 | 7.0 | 0.00 | 0.00 | 0.00 | 80 | 1028.0 |
| 20260509184039 | 53 | 360 | 2.6 | 5.2 | 0.00 | 0.00 | 0.00 | 80 | 1028.0 |
| 20260509183547 | 53 | 360 | 1.7 | 5.2 | 0.00 | 0.00 | 0.00 | 80 | 1028.0 |
| 20260509183134 | 53 | 360 | 2.6 | 5.2 | 0.00 | 0.00 | 0.00 | 80 | 1028.0 |
| 20260509182540 | 53 | 360 | 2.6 | 5.2 | 0.00 | 0.00 | 0.00 | 80 | 1027.9 |
| 20260509182043 | 53 | 360 | 2.6 | 5.2 | 0.00 | 0.00 | 0.00 | 80 | 1028.0 |
| 20260509181606 | 53 | 360 | 2.6 | 5.2 | 0.00 | 0.00 | 0.00 | 80 | 1027.9 |
| 20260509181041 | 53 | 360 | 2.6 | 5.2 | 0.00 | 0.00 | 0.00 | 80 | 1028.0 |
| 20260509180541 | 53 | 360 | 1.7 | 5.2 | 0.00 | 0.00 | 0.00 | 80 | 1028.0 |
| 20260509180051 | 53 | 360 | 2.6 | 4.3 | 0.00 | 0.00 | 0.00 | 80 | 1027.9 |
| 20260509175544 | 53 | 360 | 1.7 | 4.3 | 0.00 | 0.00 | 0.00 | 79 | 1028.0 |
| 20260509175043 | 53 | 360 | 1.7 | 4.3 | 0.00 | 0.00 | 0.00 | 79 | 1028.1 |
| 20260509174549 | 53 | 360 | 1.7 | 4.3 | 0.00 | 0.00 | 0.00 | 79 | 1028.1 |
| 20260509174042 | 54 | 360 | 1.7 | 4.3 | 0.00 | 0.00 | 0.00 | 79 | 1028.1 |
| 20260509173541 | 54 | 360 | 1.7 | 4.3 | 0.00 | 0.00 | 0.00 | 78 | 1028.1 |
| 20260509173051 | 54 | 360 | 1.7 | 4.3 | 0.00 | 0.00 | 0.00 | 78 | 1028.2 |
| 20260509172542 | 54 | 360 | 2.6 | 4.3 | 0.00 | 0.00 | 0.00 | 77 | 1028.2 |
| 20260509172042 | 54 | 360 | 2.6 | 5.2 | 0.00 | 0.00 | 0.00 | 77 | 1028.1 |
| 20260509171546 | 54 | 360 | 2.6 | 5.2 | 0.00 | 0.00 | 0.00 | 77 | 1028.1 |
| 20260509171043 | 55 | 360 | 1.7 | 5.2 | 0.00 | 0.00 | 0.00 | 76 | 1028.2 |
| 20260509170545 | 55 | 360 | 1.7 | 7.0 | 0.00 | 0.00 | 0.00 | 76 | 1028.2 |
| 20260509170056 | 55 | 360 | 2.6 | 7.0 | 0.00 | 0.00 | 0.00 | 76 | 1028.2 |
| 20260509165541 | 55 | 360 | 2.6 | 7.0 | 0.00 | 0.00 | 0.00 | 76 | 1028.3 |
| 20260509165042 | 55 | 360 | 2.6 | 7.0 | 0.00 | 0.00 | 0.00 | 75 | 1028.3 |
| 20260509164600 | 55 | 360 | 2.6 | 7.0 | 0.00 | 0.00 | 0.00 | 75 | 1028.4 |
| 20260509164042 | 55 | 360 | 2.6 | 7.0 | 0.00 | 0.00 | 0.00 | 75 | 1028.4 |
| 20260509163542 | 55 | 360 | 2.6 | 7.0 | 0.00 | 0.00 | 0.00 | 75 | 1028.4 |
| 20260509163053 | 55 | 360 | 1.7 | 5.2 | 0.00 | 0.00 | 0.00 | 74 | 1028.4 |
| 20260509162543 | 55 | 360 | 2.6 | 5.2 | 0.00 | 0.00 | 0.00 | 74 | 1028.4 |
| 20260509162042 | 55 | 360 | 2.6 | 5.2 | 0.00 | 0.00 | 0.00 | 74 | 1028.3 |
| 20260509161546 | 55 | 360 | 2.6 | 5.2 | 0.00 | 0.00 | 0.00 | 73 | 1028.3 |
| 20260509161045 | 55 | 360 | 3.5 | 7.0 | 0.00 | 0.00 | 0.00 | 73 | 1028.2 |
| 20260509160542 | 55 | 360 | 2.6 | 7.0 | 0.00 | 0.00 | 0.00 | 72 | 1028.3 |
| 20260509160057 | 55 | 360 | 2.6 | 7.0 | 0.00 | 0.00 | 0.00 | 72 | 1028.3 |
| 20260509155543 | 55 | 360 | 2.6 | 5.2 | 0.00 | 0.00 | 0.00 | 71 | 1028.3 |
| 20260509155040 | 56 | 360 | 2.6 | 5.2 | 0.00 | 0.00 | 0.00 | 71 | 1028.3 |
| 20260509154556 | 56 | 360 | 2.6 | 7.8 | 0.00 | 0.00 | 0.00 | 70 | 1028.3 |
| 20260509154044 | 56 | 360 | 3.5 | 7.8 | 0.00 | 0.00 | 0.00 | 70 | 1028.3 |
| 20260509153543 | 56 | 360 | 2.6 | 8.7 | 0.00 | 0.00 | 0.00 | 69 | 1028.3 |
| 20260509153058 | 56 | 360 | 4.3 | 8.7 | 0.00 | 0.00 | 0.00 | 69 | 1028.3 |
| 20260509152540 | 56 | 360 | 3.5 | 8.7 | 0.00 | 0.00 | 0.00 | 69 | 1028.3 |
| 20260509152041 | 56 | 360 | 3.5 | 7.8 | 0.00 | 0.00 | 0.00 | 68 | 1028.2 |
| 20260509151553 | 56 | 360 | 2.6 | 7.8 | 0.00 | 0.00 | 0.00 | 68 | 1028.3 |
| 20260509151041 | 56 | 360 | 3.5 | 7.8 | 0.00 | 0.00 | 0.00 | 67 | 1028.4 |
| 20260509150542 | 57 | 360 | 3.5 | 7.8 | 0.00 | 0.00 | 0.00 | 67 | 1028.2 |
| 20260509150049 | 57 | 360 | 3.5 | 7.0 | 0.00 | 0.00 | 0.00 | 67 | 1028.3 |
| 20260509145542 | 57 | 360 | 3.5 | 7.0 | 0.00 | 0.00 | 0.00 | 66 | 1028.4 |
| 20260509145041 | 57 | 360 | 3.5 | 7.0 | 0.00 | 0.00 | 0.00 | 66 | 1028.4 |
| 20260509144549 | 57 | 360 | 2.6 | 7.0 | 0.00 | 0.00 | 0.00 | 66 | 1028.4 |
| 20260509144039 | 57 | 360 | 3.5 | 7.0 | 0.00 | 0.00 | 0.00 | 65 | 1028.3 |
| 20260509143544 | 57 | 360 | 2.6 | 7.0 | 0.00 | 0.00 | 0.00 | 65 | 1028.4 |
| 20260509143051 | 57 | 360 | 2.6 | 7.8 | 0.00 | 0.00 | 0.00 | 65 | 1028.5 |
| 20260509142540 | 57 | 360 | 2.6 | 7.8 | 0.00 | 0.00 | 0.00 | 65 | 1028.4 |
| 20260509142046 | 57 | 360 | 3.5 | 7.8 | 0.00 | 0.00 | 0.00 | 65 | 1028.5 |
| 20260509141556 | 57 | 360 | 2.6 | 7.0 | 0.00 | 0.00 | 0.00 | 64 | 1028.5 |
| 20260509141042 | 57 | 360 | 3.5 | 7.0 | 0.00 | 0.00 | 0.00 | 64 | 1028.5 |
| 20260509140540 | 57 | 360 | 3.5 | 7.0 | 0.00 | 0.00 | 0.00 | 64 | 1028.6 |
| 20260509140056 | 57 | 360 | 3.5 | 7.0 | 0.00 | 0.00 | 0.00 | 64 | 1028.5 |
| 20260509135542 | 57 | 360 | 2.6 | 7.0 | 0.00 | 0.00 | 0.00 | 64 | 1028.5 |
| 20260509135042 | 57 | 360 | 2.6 | 5.2 | 0.00 | 0.00 | 0.00 | 64 | 1028.6 |
| 20260509134557 | 57 | 360 | 2.6 | 5.2 | 0.00 | 0.00 | 0.00 | 64 | 1028.6 |
| 20260509134040 | 57 | 360 | 2.6 | 5.2 | 0.00 | 0.00 | 0.00 | 64 | 1028.6 |
| 20260509133543 | 57 | 360 | 2.6 | 5.2 | 0.00 | 0.00 | 0.00 | 64 | 1028.5 |
| 20260509133049 | 57 | 360 | 1.7 | 4.3 | 0.00 | 0.00 | 0.00 | 63 | 1028.6 |
| 20260509132545 | 57 | 360 | 2.6 | 5.2 | 0.00 | 0.00 | 0.00 | 63 | 1028.6 |
| 20260509132043 | 57 | 360 | 1.7 | 5.2 | 0.00 | 0.00 | 0.00 | 62 | 1028.4 |
| 20260509131547 | 57 | 360 | 2.6 | 5.2 | 0.00 | 0.00 | 0.00 | 62 | 1028.5 |
| 20260509131042 | 57 | 360 | 2.6 | 4.3 | 0.00 | 0.00 | 0.00 | 62 | 1028.5 |
| 20260509130541 | 57 | 360 | 2.6 | 5.2 | 0.00 | 0.00 | 0.00 | 61 | 1028.5 |
| 20260509130053 | 57 | 360 | 2.6 | 5.2 | 0.00 | 0.00 | 0.00 | 61 | 1028.6 |
| 20260509125543 | 57 | 360 | 2.6 | 5.2 | 0.00 | 0.00 | 0.00 | 60 | 1028.6 |
| 20260509125042 | 57 | 360 | 2.6 | 4.3 | 0.00 | 0.00 | 0.00 | 60 | 1028.6 |
| 20260509124546 | 57 | 360 | 2.6 | 4.3 | 0.00 | 0.00 | 0.00 | 59 | 1028.7 |
| 20260509124043 | 57 | 360 | 2.6 | 5.2 | 0.00 | 0.00 | 0.00 | 59 | 1028.7 |
| 20260509123547 | 57 | 360 | 2.6 | 5.2 | 0.00 | 0.00 | 0.00 | 59 | 1028.6 |
| 20260509123052 | 57 | 360 | 1.7 | 4.3 | 0.00 | 0.00 | 0.00 | 58 | 1028.5 |
| 20260509122541 | 57 | 360 | 2.6 | 4.3 | 0.00 | 0.00 | 0.00 | 58 | 1028.5 |
| 20260509122042 | 57 | 360 | 1.7 | 4.3 | 0.00 | 0.00 | 0.00 | 58 | 1028.5 |
| 20260509121547 | 57 | 360 | 1.7 | 4.3 | 0.00 | 0.00 | 0.00 | 58 | 1028.6 |
| 20260509121042 | 57 | 360 | 1.7 | 3.5 | 0.00 | 0.00 | 0.00 | 58 | 1028.6 |
| 20260509120544 | 57 | 360 | 0.9 | 2.6 | 0.00 | 0.00 | 0.00 | 58 | 1028.6 |
| 20260509120055 | 57 | 360 | 0.9 | 2.6 | 0.00 | 0.00 | 0.00 | 58 | 1028.5 |
| 20260509115541 | 57 | 360 | 0.9 | 2.6 | 0.00 | 0.00 | 0.00 | 57 | 1028.5 |
| 20260509115044 | 57 | 360 | 0.9 | 2.6 | 0.00 | 0.00 | 0.00 | 57 | 1028.6 |
| 20260509114550 | 57 | 360 | 0.9 | 2.6 | 0.00 | 0.00 | 0.00 | 57 | 1028.6 |
| 20260509114043 | 58 | 360 | 0.9 | 2.6 | 0.00 | 0.00 | 0.00 | 57 | 1028.6 |
| 20260509113544 | 58 | 360 | 0.9 | 3.5 | 0.00 | 0.00 | 0.00 | 56 | 1028.7 |
| 20260509113052 | 58 | 360 | 0.9 | 3.5 | 0.00 | 0.00 | 0.00 | 56 | 1028.6 |
| 20260509112545 | 58 | 360 | 0.9 | 2.6 | 0.00 | 0.00 | 0.00 | 55 | 1028.5 |
| 20260509112040 | 58 | 360 | 0.9 | 2.6 | 0.00 | 0.00 | 0.00 | 55 | 1028.5 |
| 20260509111551 | 59 | 360 | 0.9 | 2.6 | 0.00 | 0.00 | 0.00 | 55 | 1028.5 |
| 20260509111041 | 59 | 360 | 0.9 | 2.6 | 0.00 | 0.00 | 0.00 | 54 | 1028.5 |
| 20260509110542 | 59 | 360 | 0.9 | 1.7 | 0.00 | 0.00 | 0.00 | 54 | 1028.5 |
| 20260509110052 | 60 | 360 | 0.9 | 2.6 | 0.00 | 0.00 | 0.00 | 53 | 1028.5 |
| 20260509105540 | 60 | 360 | 0.9 | 2.6 | 0.00 | 0.00 | 0.00 | 53 | 1028.5 |
| 20260509105043 | 60 | 360 | 0.9 | 2.6 | 0.00 | 0.00 | 0.00 | 53 | 1028.5 |
| 20260509104555 | 60 | 360 | 1.7 | 2.6 | 0.00 | 0.00 | 0.00 | 52 | 1028.5 |
| 20260509104040 | 61 | 360 | 1.7 | 2.6 | 0.00 | 0.00 | 0.00 | 52 | 1028.5 |
| 20260509103540 | 61 | 360 | 1.7 | 3.5 | 0.00 | 0.00 | 0.00 | 52 | 1028.5 |
| 20260509103054 | 61 | 360 | 1.7 | 3.5 | 0.00 | 0.00 | 0.00 | 51 | 1028.5 |
| 20260509102540 | 61 | 360 | 1.7 | 3.5 | 0.00 | 0.00 | 0.00 | 51 | 1028.4 |
| 20260509102044 | 62 | 360 | 1.7 | 3.5 | 0.00 | 0.00 | 0.00 | 50 | 1028.4 |
| 20260509101556 | 62 | 360 | 1.7 | 3.5 | 0.00 | 0.00 | 0.00 | 50 | 1028.5 |
| 20260509101040 | 62 | 360 | 1.7 | 4.3 | 0.00 | 0.00 | 0.00 | 50 | 1028.3 |
| 20260509100540 | 62 | 360 | 1.7 | 4.3 | 0.00 | 0.00 | 0.00 | 50 | 1028.3 |
| 20260509100058 | 62 | 360 | 1.7 | 3.5 | 0.00 | 0.00 | 0.00 | 49 | 1028.3 |
| 20260509095540 | 63 | 360 | 1.7 | 3.5 | 0.00 | 0.00 | 0.00 | 49 | 1028.3 |
| 20260509095041 | 63 | 360 | 1.7 | 4.3 | 0.00 | 0.00 | 0.00 | 48 | 1028.3 |
| 20260509094555 | 63 | 360 | 1.7 | 4.3 | 0.00 | 0.00 | 0.00 | 48 | 1028.3 |
| 20260509094042 | 64 | 360 | 1.7 | 4.3 | 0.00 | 0.00 | 0.00 | 47 | 1028.3 |
| 20260509093543 | 64 | 360 | 2.6 | 4.3 | 0.00 | 0.00 | 0.00 | 47 | 1028.2 |
| 20260509093101 | 64 | 360 | 1.7 | 7.0 | 0.00 | 0.00 | 0.00 | 47 | 1028.2 |
| 20260509092541 | 64 | 360 | 2.6 | 7.0 | 0.00 | 0.00 | 0.00 | 46 | 1028.0 |
| 20260509092043 | 64 | 360 | 3.5 | 7.0 | 0.00 | 0.00 | 0.00 | 46 | 1028.0 |
| 20260509091557 | 65 | 360 | 3.5 | 7.0 | 0.00 | 0.00 | 0.00 | 46 | 1027.9 |
| 20260509091043 | 65 | 360 | 4.3 | 7.8 | 0.00 | 0.00 | 0.00 | 46 | 1027.9 |
| 20260509090544 | 65 | 360 | 3.5 | 7.8 | 0.00 | 0.00 | 0.00 | 46 | 1027.8 |
| 20260509090051 | 65 | 360 | 3.5 | 7.8 | 0.00 | 0.00 | 0.00 | 45 | 1027.9 |
| 20260509085540 | 65 | 360 | 3.5 | 10.4 | 0.00 | 0.00 | 0.00 | 45 | 1027.9 |
| 20260509085041 | 66 | 360 | 4.3 | 10.4 | 0.00 | 0.00 | 0.00 | 45 | 1027.8 |
| 20260509084601 | 66 | 360 | 3.5 | 10.4 | 0.00 | 0.00 | 0.00 | 45 | 1027.7 |
| 20260509084047 | 66 | 360 | 4.3 | 10.4 | 0.00 | 0.00 | 0.00 | 45 | 1027.8 |
| 20260509083542 | 66 | 360 | 6.1 | 10.4 | 0.00 | 0.00 | 0.00 | 44 | 1027.6 |
| 20260509083102 | 66 | 360 | 4.3 | 10.4 | 0.00 | 0.00 | 0.00 | 43 | 1027.7 |
| 20260509082543 | 67 | 360 | 5.2 | 8.7 | 0.00 | 0.00 | 0.00 | 43 | 1027.7 |
| 20260509082043 | 67 | 360 | 3.5 | 8.7 | 0.00 | 0.00 | 0.00 | 43 | 1027.6 |
| 20260509081553 | 67 | 360 | 3.5 | 9.6 | 0.00 | 0.00 | 0.00 | 43 | 1027.6 |
| 20260509081043 | 67 | 360 | 4.3 | 9.6 | 0.00 | 0.00 | 0.00 | 43 | 1027.7 |
| 20260509080541 | 67 | 360 | 5.2 | 9.6 | 0.00 | 0.00 | 0.00 | 43 | 1027.6 |
| 20260509080057 | 67 | 360 | 5.2 | 9.6 | 0.00 | 0.00 | 0.00 | 42 | 1027.5 |
| 20260509075539 | 67 | 360 | 4.3 | 10.4 | 0.00 | 0.00 | 0.00 | 42 | 1027.6 |
| 20260509075041 | 68 | 360 | 5.2 | 10.4 | 0.00 | 0.00 | 0.00 | 42 | 1027.6 |
| 20260509074548 | 68 | 360 | 5.2 | 10.4 | 0.00 | 0.00 | 0.00 | 42 | 1027.5 |
| 20260509074044 | 68 | 360 | 4.3 | 10.4 | 0.00 | 0.00 | 0.00 | 41 | 1027.6 |
| 20260509073541 | 68 | 360 | 4.3 | 10.4 | 0.00 | 0.00 | 0.00 | 42 | 1027.5 |
| 20260509073048 | 68 | 360 | 5.2 | 9.6 | 0.00 | 0.00 | 0.00 | 41 | 1027.5 |
| 20260509072543 | 68 | 360 | 4.3 | 10.4 | 0.00 | 0.00 | 0.00 | 41 | 1027.6 |
| 20260509072041 | 68 | 360 | 5.2 | 10.4 | 0.00 | 0.00 | 0.00 | 42 | 1027.5 |
| 20260509071552 | 68 | 360 | 4.3 | 10.4 | 0.00 | 0.00 | 0.00 | 42 | 1027.5 |
| 20260509071043 | 69 | 360 | 4.3 | 10.4 | 0.00 | 0.00 | 0.00 | 42 | 1027.5 |
| 20260509070608 | 69 | 360 | 3.5 | 9.6 | 0.00 | 0.00 | 0.00 | 41 | 1027.4 |
| 20260509065541 | 68 | 360 | 4.3 | 9.6 | 0.00 | 0.00 | 0.00 | 42 | 1027.5 |
| 20260509065041 | 68 | 360 | 4.3 | 10.4 | 0.00 | 0.00 | 0.00 | 42 | 1027.4 |
| 20260509064546 | 68 | 360 | 4.3 | 10.4 | 0.00 | 0.00 | 0.00 | 43 | 1027.4 |
| 20260509064045 | 68 | 360 | 5.2 | 10.4 | 0.00 | 0.00 | 0.00 | 43 | 1027.4 |
| 20260509063540 | 68 | 360 | 5.2 | 10.4 | 0.00 | 0.00 | 0.00 | 43 | 1027.4 |
| 20260509063055 | 68 | 360 | 3.5 | 9.6 | 0.00 | 0.00 | 0.00 | 42 | 1027.4 |
| 20260509062541 | 68 | 360 | 5.2 | 10.4 | 0.00 | 0.00 | 0.00 | 43 | 1027.4 |
| 20260509062043 | 68 | 360 | 5.2 | 10.4 | 0.00 | 0.00 | 0.00 | 43 | 1027.5 |
| 20260509061552 | 68 | 360 | 5.2 | 10.4 | 0.00 | 0.00 | 0.00 | 43 | 1027.5 |
| 20260509061042 | 68 | 360 | 5.2 | 10.4 | 0.00 | 0.00 | 0.00 | 43 | 1027.4 |
| 20260509060543 | 68 | 360 | 4.3 | 10.4 | 0.00 | 0.00 | 0.00 | 43 | 1027.6 |
| 20260509060052 | 68 | 360 | 4.3 | 10.4 | 0.00 | 0.00 | 0.00 | 43 | 1027.6 |
| 20260509055543 | 68 | 360 | 4.3 | 10.4 | 0.00 | 0.00 | 0.00 | 42 | 1027.6 |
| 20260509055041 | 68 | 360 | 5.2 | 13.9 | 0.00 | 0.00 | 0.00 | 43 | 1027.6 |
| 20260509054600 | 68 | 360 | 6.1 | 13.9 | 0.00 | 0.00 | 0.00 | 42 | 1027.6 |
| 20260509054041 | 68 | 360 | 2.6 | 9.6 | 0.00 | 0.00 | 0.00 | 44 | 1027.7 |
| 20260509053542 | 68 | 360 | 2.6 | 11.3 | 0.00 | 0.00 | 0.00 | 44 | 1027.7 |
| 20260509053125 | 68 | 360 | 5.2 | 11.3 | 0.00 | 0.00 | 0.00 | 43 | 1027.8 |
| 20260509052542 | 68 | 360 | 6.1 | 10.4 | 0.00 | 0.00 | 0.00 | 43 | 1027.9 |
| 20260509052045 | 68 | 360 | 3.5 | 10.4 | 0.00 | 0.00 | 0.00 | 44 | 1027.8 |
| 20260509051607 | 68 | 360 | 3.5 | 10.4 | 0.00 | 0.00 | 0.00 | 44 | 1027.8 |
| 20260509051041 | 68 | 360 | 2.6 | 10.4 | 0.00 | 0.00 | 0.00 | 45 | 1027.8 |
| 20260509050541 | 67 | 360 | 4.3 | 10.4 | 0.00 | 0.00 | 0.00 | 45 | 1027.9 |
| 20260509050105 | 67 | 360 | 3.5 | 9.6 | 0.00 | 0.00 | 0.00 | 45 | 1027.9 |
| 20260509045541 | 67 | 360 | 5.2 | 9.6 | 0.00 | 0.00 | 0.00 | 45 | 1027.9 |
| 20260509045041 | 67 | 360 | 2.6 | 9.6 | 0.00 | 0.00 | 0.00 | 45 | 1028.0 |
| 20260509044550 | 67 | 360 | 4.3 | 9.6 | 0.00 | 0.00 | 0.00 | 45 | 1028.1 |
| 20260509044043 | 67 | 360 | 5.2 | 9.6 | 0.00 | 0.00 | 0.00 | 46 | 1028.2 |
| 20260509043540 | 66 | 360 | 4.3 | 9.6 | 0.00 | 0.00 | 0.00 | 47 | 1028.3 |
| 20260509043053 | 66 | 360 | 3.5 | 9.6 | 0.00 | 0.00 | 0.00 | 48 | 1028.4 |
| 20260509042541 | 66 | 360 | 3.5 | 9.6 | 0.00 | 0.00 | 0.00 | 48 | 1028.4 |
| 20260509042041 | 66 | 360 | 3.5 | 10.4 | 0.00 | 0.00 | 0.00 | 47 | 1028.4 |
| 20260509041555 | 66 | 360 | 5.2 | 10.4 | 0.00 | 0.00 | 0.00 | 48 | 1028.6 |
| 20260509041043 | 66 | 360 | 1.7 | 11.3 | 0.00 | 0.00 | 0.00 | 48 | 1028.7 |
| 20260509040541 | 66 | 360 | 3.5 | 11.3 | 0.00 | 0.00 | 0.00 | 48 | 1028.9 |
| 20260509040053 | 66 | 360 | 6.1 | 11.3 | 0.00 | 0.00 | 0.00 | 48 | 1028.9 |
| 20260509035544 | 66 | 360 | 4.3 | 10.4 | 0.00 | 0.00 | 0.00 | 49 | 1029.1 |
| 20260509035043 | 66 | 360 | 5.2 | 9.6 | 0.00 | 0.00 | 0.00 | 49 | 1029.2 |
| 20260509034550 | 66 | 360 | 4.3 | 9.6 | 0.00 | 0.00 | 0.00 | 50 | 1029.2 |
| 20260509034041 | 66 | 360 | 5.2 | 9.6 | 0.00 | 0.00 | 0.00 | 50 | 1029.5 |
| 20260509033542 | 65 | 360 | 5.2 | 9.6 | 0.00 | 0.00 | 0.00 | 50 | 1029.6 |
| 20260509033100 | 65 | 360 | 3.5 | 11.3 | 0.00 | 0.00 | 0.00 | 51 | 1029.6 |
| 20260509032543 | 65 | 360 | 4.3 | 11.3 | 0.00 | 0.00 | 0.00 | 51 | 1029.9 |
| 20260509032040 | 65 | 360 | 5.2 | 9.6 | 0.00 | 0.00 | 0.00 | 50 | 1030.0 |
| 20260509031555 | 65 | 360 | 3.5 | 8.7 | 0.00 | 0.00 | 0.00 | 52 | 1030.1 |
| 20260509031039 | 64 | 360 | 3.5 | 8.7 | 0.00 | 0.00 | 0.00 | 52 | 1030.2 |
| 20260509030543 | 64 | 360 | 3.5 | 8.7 | 0.00 | 0.00 | 0.00 | 52 | 1030.2 |
| 20260509030052 | 64 | 360 | 3.5 | 8.7 | 0.00 | 0.00 | 0.00 | 54 | 1030.5 |
| 20260509025543 | 64 | 360 | 3.5 | 10.4 | 0.00 | 0.00 | 0.00 | 54 | 1030.6 |
| 20260509025045 | 64 | 360 | 6.1 | 10.4 | 0.00 | 0.00 | 0.00 | 55 | 1030.6 |
| 20260509024553 | 63 | 360 | 4.3 | 9.6 | 0.00 | 0.00 | 0.00 | 55 | 1030.8 |
| 20260509024041 | 62 | 360 | 5.2 | 11.3 | 0.00 | 0.00 | 0.00 | 56 | 1031.0 |
| 20260509023542 | 63 | 360 | 4.3 | 11.3 | 0.00 | 0.00 | 0.00 | 55 | 1030.9 |
| 20260509023053 | 63 | 360 | 5.2 | 9.6 | 0.00 | 0.00 | 0.00 | 56 | 1031.0 |
| 20260509022546 | 63 | 360 | 4.3 | 9.6 | 0.00 | 0.00 | 0.00 | 57 | 1031.1 |
| 20260509022043 | 63 | 360 | 5.2 | 8.7 | 0.00 | 0.00 | 0.00 | 57 | 1031.2 |
| 20260509021554 | 63 | 360 | 4.3 | 10.4 | 0.00 | 0.00 | 0.00 | 58 | 1031.3 |
| 20260509021045 | 63 | 360 | 6.1 | 10.4 | 0.00 | 0.00 | 0.00 | 57 | 1031.4 |
| 20260509020539 | 63 | 360 | 4.3 | 10.4 | 0.00 | 0.00 | 0.00 | 58 | 1031.4 |
| 20260509020053 | 63 | 360 | 5.2 | 10.4 | 0.00 | 0.00 | 0.00 | 58 | 1031.6 |
| 20260509015543 | 63 | 360 | 4.3 | 9.6 | 0.00 | 0.00 | 0.00 | 58 | 1031.6 |
| 20260509015044 | 62 | 360 | 3.5 | 10.4 | 0.00 | 0.00 | 0.00 | 60 | 1031.6 |
| 20260509014551 | 62 | 360 | 6.1 | 11.3 | 0.00 | 0.00 | 0.00 | 61 | 1031.7 |
| 20260509014039 | 61 | 360 | 4.3 | 12.2 | 0.00 | 0.00 | 0.00 | 61 | 1031.7 |
| 20260509013544 | 61 | 360 | 6.1 | 12.2 | 0.00 | 0.00 | 0.00 | 62 | 1031.8 |
| 20260509013057 | 61 | 360 | 7.0 | 12.2 | 0.00 | 0.00 | 0.00 | 62 | 1031.9 |
| 20260509012540 | 61 | 360 | 6.1 | 13.0 | 0.00 | 0.00 | 0.00 | 62 | 1031.9 |
| 20260509012041 | 60 | 360 | 7.0 | 13.0 | 0.00 | 0.00 | 0.00 | 63 | 1031.9 |
| 20260509011557 | 60 | 360 | 7.0 | 11.3 | 0.00 | 0.00 | 0.00 | 63 | 1032.0 |
| 20260509011042 | 61 | 360 | 6.1 | 12.2 | 0.00 | 0.00 | 0.00 | 63 | 1032.0 |
| 20260509010545 | 60 | 360 | 5.2 | 13.0 | 0.00 | 0.00 | 0.00 | 64 | 1032.0 |
| 20260509010054 | 60 | 360 | 7.0 | 13.0 | 0.00 | 0.00 | 0.00 | 65 | 1032.0 |
| 20260509005543 | 60 | 360 | 6.1 | 13.0 | 0.00 | 0.00 | 0.00 | 65 | 1032.1 |
| 20260509005041 | 59 | 360 | 7.0 | 13.0 | 0.00 | 0.00 | 0.00 | 66 | 1032.1 |
| 20260509004549 | 59 | 360 | 5.2 | 12.2 | 0.00 | 0.00 | 0.00 | 66 | 1032.2 |
| 20260509004045 | 59 | 360 | 7.0 | 12.2 | 0.00 | 0.00 | 0.00 | 67 | 1032.1 |
| 20260509003543 | 59 | 360 | 6.1 | 11.3 | 0.00 | 0.00 | 0.00 | 67 | 1032.2 |
| 20260509003049 | 58 | 360 | 7.0 | 11.3 | 0.00 | 0.00 | 0.00 | 68 | 1032.3 |
| 20260509002542 | 58 | 360 | 6.1 | 13.0 | 0.00 | 0.00 | 0.00 | 69 | 1032.3 |
| 20260509002039 | 58 | 360 | 5.2 | 13.0 | 0.00 | 0.00 | 0.00 | 69 | 1032.5 |
| 20260509001548 | 57 | 360 | 7.0 | 13.0 | 0.00 | 0.00 | 0.00 | 70 | 1032.4 |
| 20260509001040 | 57 | 360 | 7.0 | 13.0 | 0.00 | 0.00 | 0.00 | 70 | 1032.4 |
| 20260509000548 | 57 | 360 | 7.8 | 11.3 | 0.00 | 0.00 | 0.00 | 71 | 1032.4 |
| 20260509000052 | 56 | 360 | 6.1 | 11.3 | 0.00 | 0.00 | 0.00 | 72 | 1032.4 |
| 20260508235542 | 56 | 360 | 6.1 | 11.3 | 0.00 | 0.00 | 0.00 | 72 | 1032.4 |
| 20260508235043 | 56 | 360 | 6.1 | 11.3 | 0.00 | 0.00 | 0.00 | 73 | 1032.3 |
| 20260508234550 | 56 | 360 | 5.2 | 11.3 | 0.00 | 0.00 | 0.00 | 74 | 1032.2 |
| 20260508234043 | 55 | 360 | 6.1 | 11.3 | 0.00 | 0.00 | 0.00 | 75 | 1032.2 |
| 20260508233541 | 55 | 360 | 4.3 | 9.6 | 0.00 | 0.00 | 0.00 | 76 | 1032.2 |
| 20260508233101 | 54 | 360 | 4.3 | 8.7 | 0.00 | 0.00 | 0.00 | 77 | 1032.0 |
| 20260508232540 | 54 | 360 | 4.3 | 8.7 | 0.00 | 0.00 | 0.00 | 78 | 1032.0 |
| 20260508232041 | 54 | 360 | 2.6 | 7.0 | 0.00 | 0.00 | 0.00 | 79 | 1032.0 |
| 20260508231551 | 53 | 360 | 2.6 | 7.0 | 0.00 | 0.00 | 0.00 | 80 | 1031.9 |
| 20260508231044 | 53 | 360 | 3.5 | 7.0 | 0.00 | 0.00 | 0.00 | 81 | 1031.8 |
| 20260508230544 | 52 | 360 | 3.5 | 7.0 | 0.00 | 0.00 | 0.00 | 82 | 1031.8 |
| 20260508230054 | 52 | 360 | 2.6 | 5.2 | 0.00 | 0.00 | 0.00 | 82 | 1031.7 |
| 20260508225542 | 51 | 360 | 2.6 | 5.2 | 0.00 | 0.00 | 0.00 | 83 | 1031.7 |
| 20260508225044 | 51 | 360 | 1.7 | 4.3 | 0.00 | 0.00 | 0.00 | 84 | 1031.6 |
| 20260508224610 | 50 | 360 | 1.7 | 4.3 | 0.00 | 0.00 | 0.00 | 84 | 1031.6 |
| 20260508224040 | 50 | 360 | 1.7 | 5.2 | 0.00 | 0.00 | 0.00 | 85 | 1031.5 |
| 20260508223544 | 50 | 360 | 1.7 | 5.2 | 0.00 | 0.00 | 0.00 | 85 | 1031.5 |
| 20260508223052 | 49 | 360 | 1.7 | 4.3 | 0.00 | 0.00 | 0.00 | 85 | 1031.4 |
| 20260508222540 | 49 | 360 | 1.7 | 4.3 | 0.00 | 0.00 | 0.00 | 85 | 1031.4 |
| 20260508222040 | 49 | 360 | 1.7 | 4.3 | 0.00 | 0.00 | 0.00 | 85 | 1031.3 |
| 20260508221553 | 49 | 360 | 2.6 | 4.3 | 0.00 | 0.00 | 0.00 | 85 | 1031.3 |
| 20260508221041 | 49 | 360 | 1.7 | 4.3 | 0.00 | 0.00 | 0.00 | 85 | 1031.2 |
| 20260508220541 | 49 | 360 | 1.7 | 4.3 | 0.00 | 0.00 | 0.00 | 84 | 1031.3 |
| 20260508220055 | 49 | 360 | 2.6 | 4.3 | 0.00 | 0.00 | 0.00 | 84 | 1031.1 |
| 20260508215542 | 49 | 360 | 2.6 | 4.3 | 0.00 | 0.00 | 0.00 | 84 | 1031.1 |
| 20260508215041 | 49 | 360 | 2.6 | 4.3 | 0.00 | 0.00 | 0.00 | 84 | 1031.1 |
| 20260508214553 | 49 | 360 | 2.6 | 4.3 | 0.00 | 0.00 | 0.00 | 84 | 1031.1 |
| 20260508214047 | 49 | 360 | 1.7 | 4.3 | 0.00 | 0.00 | 0.00 | 84 | 1031.1 |
| 20260508213543 | 49 | 360 | 1.7 | 5.2 | 0.00 | 0.00 | 0.00 | 84 | 1030.9 |